This is the latest recevied weather packets stored in our database for station/object VK4CWL-13. If no packets are shown the sender has not sent any weather packets the latest 10 day(s).
| Time | Temp. | Humidity | Pressure | Rain* | Wind** | Luminosity | Snow |
|---|---|---|---|---|---|---|---|
| 1788216026 | 18.33° C | 69% | 1028 hPa | 0 mm | - | - | - |
| 1788215722 | 18.33° C | 70% | 1028 hPa | 0 mm | - | - | - |
| 1788215420 | 17.78° C | 72% | 1028.1 hPa | 0 mm | - | - | - |
| 1788215117 | 17.78° C | 74% | 1028 hPa | 0 mm | - | - | - |
| 1788214815 | 17.22° C | 74% | 1028.1 hPa | 0 mm | - | - | - |
| 1788214513 | 17.22° C | 77% | 1028.3 hPa | 0 mm | - | - | - |
| 1788214211 | 16.67° C | 79% | 1028.3 hPa | 0 mm | - | - | - |
| 1788213908 | 16.67° C | 82% | 1028.4 hPa | 0 mm | - | - | - |
| 1788213605 | 16.11° C | 84% | 1028.4 hPa | 0 mm | - | - | - |
| 1788213303 | 15.56° C | 85% | 1028.4 hPa | 0 mm | - | - | - |
| 1788213001 | 15° C | 88% | 1028.5 hPa | 0 mm | - | - | - |
| 1788212699 | 14.44° C | 90% | 1028.5 hPa | 0 mm | - | - | - |
| 1788212397 | 13.89° C | 91% | 1028.4 hPa | 0 mm | - | - | - |
| 1788212094 | 13.33° C | 91% | 1028.3 hPa | 0 mm | - | - | - |
| 1788211792 | 12.78° C | 91% | 1028.3 hPa | 0 mm | - | - | - |
| 1788211490 | 12.22° C | 90% | 1028.2 hPa | 0 mm | - | - | - |
| 1788211188 | 11.67° C | 88% | 1028.1 hPa | 0 mm | - | - | - |
| 1788210885 | 11.11° C | 88% | 1028.1 hPa | 0 mm | - | - | - |
| 1788210583 | 10.56° C | 89% | 1027.9 hPa | 0 mm | - | - | - |
| 1788210280 | 10° C | 90% | 1028 hPa | 0 mm | - | - | - |
| 1788209978 | 10° C | 89% | 1027.9 hPa | 0 mm | - | - | - |
| 1788209676 | 9.44° C | 89% | 1027.6 hPa | 0 mm | - | - | - |
| 1788209376 | 9.44° C | 88% | 1027.5 hPa | 0 mm | - | - | - |
| 1788209072 | 9.44° C | 87% | 1027.5 hPa | 0 mm | - | - | - |
| 1788208769 | 8.89° C | 87% | 1027.4 hPa | 0 mm | - | - | - |
* Rain since midnight (hover to see other rain measurements)
** Current wind speed in m/s (hover to see current wind gust speed)